Simultaneous Nadir Overpasses (SNOs) Predictions

Prediction of SNOs between FY3D and METOP-C Satellite Orbit:

Table of predicted SNOs for the next 14.0 days since TLE Epoch: 1/13/2024
Index Date (FY3D) Time (FY3D) Lat,Lon (FY3D) SZA (FY3D ) Date (METOP-C) Time (METOP-C) Lat,Lon (METOP-C) SZA (METOP-C ) Distance(km) Time Diff (sec)
1 01/17/2024 13:53:19 -75.97, 148.19 83.28 01/17/2024 13:54:26 -75.92, 151.16 83.38 80.44 67
2 01/17/2024 14:44:01 75.78, -43.88 96.53 01/17/2024 14:45:11 75.72, -42.16 96.42 47.63 70
3 01/17/2024 15:34:42 -75.60, 124.06 83.69 01/17/2024 15:35:55 -75.57, 124.71 83.73 18.25 73
4 01/17/2024 16:25:25 75.46, -68.18 96.16 01/17/2024 16:26:38 75.46, -68.30 96.17 3.30 73
5 01/17/2024 17:16:10 -75.45, 99.14 83.85 01/17/2024 17:17:19 -75.46, 99.02 83.85 3.45 69
6 01/17/2024 18:06:56 75.45, -93.55 96.15 01/17/2024 18:07:59 75.49, -93.56 96.18 4.06 63
7 01/17/2024 18:57:42 -75.50, 73.63 83.82 01/17/2024 18:58:40 -75.49, 73.76 83.84 3.89 58
8 01/17/2024 19:48:27 75.45,-118.91 96.13 01/17/2024 19:49:21 75.47,-118.96 96.14 2.57 54
9 01/17/2024 20:39:12 -75.44, 48.41 83.89 01/17/2024 20:40:02 -75.47, 48.36 83.87 2.65 50
10 01/17/2024 21:29:58 75.44,-144.28 96.11 01/17/2024 21:30:43 75.45,-144.36 96.11 2.36 45
11 01/17/2024 22:20:43 -75.44, 23.04 83.91 01/17/2024 22:21:24 -75.44, 22.96 83.90 2.51 41
12 01/17/2024 23:11:29 75.44,-169.65 96.09 01/17/2024 23:12:05 75.43,-169.77 96.08 3.65 36
13 01/18/2024 00:02:14 -75.44, -2.32 83.93 01/18/2024 00:02:46 -75.42, -2.45 83.94 3.74 32
14 01/18/2024 00:53:00 75.44, 164.99 96.07 01/18/2024 00:53:26 75.45, 164.98 96.09 2.04 26
15 01/18/2024 01:43:45 -75.43, -27.69 83.94 01/18/2024 01:44:07 -75.45, -27.70 83.93 2.17 22
16 01/18/2024 02:34:31 75.43, 139.62 96.05 01/18/2024 02:34:48 75.43, 139.57 96.06 1.41 17
17 01/18/2024 03:25:16 -75.43, -53.05 83.96 01/18/2024 03:25:29 -75.43, -53.10 83.96 1.56 13
18 01/18/2024 04:16:02 75.43, 114.26 96.04 01/18/2024 04:16:10 75.41, 114.17 96.02 2.94 8
19 01/18/2024 05:06:47 -75.42, -78.42 83.98 01/18/2024 05:06:51 -75.41, -78.51 83.99 2.94 4
20 01/18/2024 05:57:33 75.42, 88.89 96.02 01/18/2024 05:57:31 75.44, 88.91 96.03 1.87 2
21 01/18/2024 06:48:18 -75.42,-103.78 84.00 01/18/2024 06:48:12 -75.44,-103.76 83.98 2.03 6
22 01/18/2024 07:39:04 75.42, 63.53 96.00 01/18/2024 07:38:53 75.42, 63.51 96.00 0.47 11
23 01/18/2024 08:29:49 -75.42,-129.15 84.02 01/18/2024 08:29:34 -75.42,-129.17 84.01 0.61 15
24 01/18/2024 09:20:35 75.42, 38.16 95.98 01/18/2024 09:20:15 75.40, 38.11 95.97 2.42 20
25 01/18/2024 10:11:20 -75.41,-154.51 84.04 01/18/2024 10:10:56 -75.40,-154.57 84.05 2.27 24
26 01/18/2024 11:02:06 75.41, 12.80 95.96 01/18/2024 11:01:36 75.43, 12.85 95.98 2.15 30
27 01/18/2024 11:52:51 -75.41,-179.88 84.05 01/18/2024 11:52:17 -75.42,-179.83 84.04 2.30 34
28 01/18/2024 12:43:37 75.41, -12.57 95.94 01/18/2024 12:42:58 75.41, -12.55 95.94 0.57 39
29 01/18/2024 13:34:22 -75.40, 154.76 84.07 01/18/2024 13:33:39 -75.40, 154.77 84.07 0.38 43
30 01/18/2024 14:25:08 75.40, -37.93 95.93 01/18/2024 14:24:20 75.38, -37.95 95.91 2.23 48
31 01/18/2024 15:15:53 -75.40, 129.39 84.09 01/18/2024 15:15:01 -75.38, 129.37 84.10 1.88 52
32 01/18/2024 16:06:39 75.40, -63.30 95.91 01/18/2024 16:05:41 75.41, -63.21 95.92 2.75 58
33 01/18/2024 16:57:24 -75.39, 104.03 84.11 01/18/2024 16:56:22 -75.41, 104.11 84.09 2.88 62
34 01/18/2024 17:48:10 75.40, -88.67 95.89 01/18/2024 17:47:03 75.39, -88.61 95.89 1.53 67
35 01/18/2024 18:38:55 -75.39, 78.66 84.13 01/18/2024 18:37:44 -75.39, 78.71 84.13 1.34 71
36 01/18/2024 19:29:40 75.35,-113.88 95.82 01/18/2024 19:28:26 75.32,-114.16 95.81 8.15 74
37 01/18/2024 20:20:22 -75.20, 53.87 84.34 01/18/2024 20:19:10 -75.18, 52.75 84.34 32.18 72
38 01/18/2024 21:11:03 74.96,-138.11 95.41 01/18/2024 21:09:55 74.97,-140.54 95.46 69.91 68
39 01/18/2024 22:01:45 -74.82, 29.62 84.76 01/18/2024 22:00:39 -74.83, 26.39 84.68 93.96 66



Historial Predications of SNOs between FY3D and METOP-C
